Miscellaneous Local Product
Issued by NWS Hastings, NE

Home | Current Version | Previous Version | Text Only | Print | Product List | Glossary On
Versions: 1 2 3 4 5 6 7 8 9 10 11 12 13 14 15 16 17 18 19 20 21 22 23 24 25 26 27 28 29 30 31 32 33 34 35 36 37 38 39 40 41 42 43 44 45 46 47 48 49 50
000
AXUS43 KGID 010102
MISGRI

GID CWA HOURLY WEATHER ROUNDUP
NATIONAL WEATHER SERVICE HASTINGS NE
800 PM CDT FRI OCT 31 2014

NOTE: "FAIR" INDICATES FEW OR NO CLOUDS BELOW 12,000 FEET WITH NO
SIGNIFICANT WEATHER AND/OR OBSTRUCTIONS TO VISIBILITY.

...SOUTH CENTRAL NEBRASKA...

CITY           SKY/WX    TMP DP  RH WIND       PRES   REMARKS
GRAND ISLAND   CLEAR     32  17  54 SE6       30.41F WCI  26
HASTINGS       PTCLDY    34  14  43 SE5       30.40F WCI  30
KEARNEY        CLEAR     30  14  51 SE8       30.38F WCI  23
ORD            CLEAR     35  14  42 SE8       30.36F WCI  29
YORK           PTCLDY    36  18  48 SE5       30.43S WCI  32
AURORA         PTCLDY    31  15  51 SE7       30.42R WCI  25
LEXINGTON      CLEAR     37  14  38 SE9       30.35F WCI  31
HOLDREGE       CLEAR     32  15  48 CALM      30.37S
HEBRON         MOCLDY    31  15  53 CALM      30.44S

...NEBRASKA PANHANDLE...

CITY           SKY/WX    TMP DP  RH WIND       PRES   REMARKS
CHADRON        CLEAR     47  27  45 S14G23    30.06S
ALLIANCE       CLEAR     41  26  55 S21       30.13F
SCOTTSBLUFF    PTCLDY    46  30  53 SE18      30.09F
SIDNEY         CLEAR     42  26  53 S20       30.16S

...WESTERN AND NORTH CENTRAL NEBRASKA...

CITY           SKY/WX    TMP DP  RH WIND       PRES   REMARKS
VALENTINE      PTCLDY    40  12  32 SE16      30.25F WCI  31
AINSWORTH      PTCLDY    37  12  36 S14       30.28F WCI  28
ONEILL         CLEAR     34  15  45 SE10      30.36F WCI  26
BROKEN BOW     PTCLDY    35  16  45 SE8       30.33F WCI  29
IMPERIAL       CLEAR     39  17  41 SE15      30.27S WCI  31
NORTH PLATTE   CLEAR     37  17  44 SE9       30.30F WCI  30
MCCOOK         CLEAR     35  16  45 SE9       30.34S WCI  28

...EASTERN NEBRASKA...

CITY           SKY/WX    TMP DP  RH WIND       PRES   REMARKS
NORFOLK        PTCLDY    36  17  46 SE7       30.41F WCI  30
SO SIOUX CITY  PTCLDY    31  19  61 E5        30.46F WCI  26
TEKAMAH        PTCLDY    33  18  53 N3        30.46F
ALBION         PTCLDY    29  18  62 CALM      30.41S
OMAHA EPPLEY   MOCLDY    38  18  44 NE7       30.47F WCI  33
OFFUTT AFB     PTCLDY    32  24  73 N1        30.45F
MILLARD        PTCLDY    35  23  61 CALM      30.46S
LINCOLN        CLEAR     34  17  50 E7        30.46S WCI  28
NEBRASKA CITY  CLEAR     35  15  43 CALM      30.46S
BEATRICE       CLEAR     34  17  50 CALM      30.44S
FALLS CITY     CLEAR     35  17  47 CALM      30.45S

...NORTHERN KANSAS...

CITY           SKY/WX    TMP DP  RH WIND       PRES   REMARKS
GOODLAND       CLEAR     39  21  48 SE14      30.28F WCI  31
HILL CITY      CLEAR     37  13  37 SE8       30.38S WCI  31
NORTON         CLEAR     36   9  32 SE8       30.36S WCI  29
PHILLIPSBURG   CLEAR     39  18  41 SE6       30.40S WCI  35
SMITH CENTER   CLEAR     30  12  47 E8        30.41S WCI  23
BELOIT         CLEAR     36  18  48 E6        30.42F WCI  31
HAYS           CLEAR     36  16  44 SE7       30.40S WCI  30
RUSSELL        CLEAR     36  18  48 E9        30.40S WCI  29
CONCORDIA      PTCLDY    34  17  50 S3        30.43F
SALINA         CLEAR     40  17  39 E3        30.45S
TOPEKA         CLEAR     39  19  44 N5        30.46S



USA.gov is the U.S. government's official web portal to all federal, state and local government web resources and services.